Athens, OH

9:58 PM EDT on April 19, 2018 (GMT -0400)
Ohio University

Weather History for KUNI - November, 2011

Change the Weather History Date:

Wednesday, November 2, 2011

  Actual Average (KPKB) Record (KPKB)
Temperature  
Mean Temperature 48 °F -  
Max Temperature 66 °F 63 °F 82 °F (1987)
Min Temperature 30 °F 44 °F 24 °F (1913)
Degree Days  
Heating Degree Days 17    
Moisture  
Dew Point 32 °F    
Average Humidity 64    
Maximum Humidity 94    
Minimum Humidity 28    
Precipitation  
Precipitation 0.00 in - - ()
Sea Level Pressure  
Sea Level Pressure 30.27 in    
Wind  
Wind Speed 2 mph (South)    
Max Wind Speed 9 mph    
Max Gust Speed -    
Visibility 10 miles    
Events      
Averages and records for this station are not official NWS values.
T = Trace of Precipitation, MM = Missing Value Source: NWS Daily Summary

Daily Weather History Graph

Daily Weather History Graph

Search for Another Location

Airport or City:

Astronomy

Nov. 02, 2011 Rise Set
Actual Time 7:57 AM EDT 6:26 PM EDT
Civil Twilight 7:29 AM EDT 6:54 PM EDT
Nautical Twilight 6:57 AM EDT 7:26 PM EDT
Astronomical Twilight 6:26 AM EDT 7:57 PM EDT
Moon 2:16 PM EDT (11/2) 12:09 AM EDT (11/2)
Length of Visible Light 11h 25m
Length of Day
10h 29m
Waxing Crescent, 50% of the Moon is Illuminated
Nov 2
Waxing Crescent
Nov 2
First Quarter
Nov 10
Full
Nov 18
Last Quarter
Nov 25
New

Hourly Weather History & Observations

Time (EDT) Temp. Windchill Dew Point Humidity Pressure Visibility Wind Dir Wind Speed Gust Speed Precip Events Conditions
12:15 AM 34.2 °F - 31.8 °F 91% 30.27 in 10.0 mi Calm Calm - N/A   Clear
12:35 AM 33.8 °F - 31.8 °F 92% 30.27 in 10.0 mi Calm Calm - N/A   Clear
12:55 AM 33.6 °F - 31.8 °F 93% 30.27 in 10.0 mi Calm Calm - N/A   Clear
1:15 AM 33.6 °F - 31.8 °F 93% 30.27 in 10.0 mi Calm Calm - N/A   Clear
1:35 AM 33.4 °F - 31.5 °F 92% 30.27 in 10.0 mi Calm Calm - N/A   Clear
1:55 AM 33.4 °F - 31.5 °F 92% 30.27 in 10.0 mi Calm Calm - N/A   Clear
2:15 AM 33.3 °F - 31.3 °F 92% 30.27 in 10.0 mi Calm Calm - N/A   Clear
2:35 AM 32.5 °F - 30.9 °F 94% 30.27 in 10.0 mi Calm Calm - N/A   Clear
2:55 AM 32.2 °F - 30.6 °F 94% 30.27 in 10.0 mi Calm Calm - N/A   Clear
3:15 AM 32.0 °F - 30.4 °F 94% 30.27 in 10.0 mi Calm Calm - N/A   Clear
3:35 AM 32.2 °F - 30.6 °F 94% 30.27 in 10.0 mi Calm Calm - N/A   Clear
4:15 AM 31.8 °F - 29.7 °F 92% 30.29 in 10.0 mi Calm Calm - N/A   Clear
4:35 AM 31.5 °F - 29.3 °F 92% 30.29 in 10.0 mi Calm Calm - N/A   Clear
4:55 AM 31.5 °F - 29.5 °F 92% 30.29 in 10.0 mi Calm Calm - N/A   Clear
5:55 AM 31.6 °F - 29.7 °F 92% 30.30 in 10.0 mi Calm Calm - N/A   Clear
6:55 AM 30.6 °F - 28.6 °F 92% 30.31 in 10.0 mi Calm Calm - N/A   Clear
7:35 AM 30.4 °F - 28.2 °F 92% 30.32 in 10.0 mi Calm Calm - N/A   Clear
7:55 AM 30.4 °F - 28.2 °F 92% 30.33 in 10.0 mi Calm Calm - N/A   Clear
8:15 AM 30.6 °F - 28.4 °F 92% 30.34 in 10.0 mi Calm Calm - N/A   Clear
8:35 AM 30.6 °F - 28.6 °F 92% 30.34 in 10.0 mi Calm Calm - N/A   Clear
8:55 AM 31.5 °F - 29.3 °F 92% 30.34 in 10.0 mi Calm Calm - N/A   Clear
9:15 AM 33.1 °F - 30.7 °F 91% 30.34 in 10.0 mi Calm Calm - N/A   Clear
9:35 AM 35.1 °F - 32.2 °F 89% 30.34 in 10.0 mi Calm Calm - N/A   Clear
9:55 AM 37.2 °F - 33.4 °F 86% 30.34 in 10.0 mi Calm Calm - N/A   Clear
10:15 AM 40.8 °F - 36.0 °F 83% 30.34 in 10.0 mi Calm Calm - N/A   Clear
10:35 AM 46.4 °F 45.2 °F 36.9 °F 69% 30.34 in 10.0 mi South 3.5 mph - N/A   Clear
10:55 AM 49.8 °F - 34.9 °F 56% 30.34 in 10.0 mi SSW 5.8 mph - N/A   Clear
11:15 AM 50.9 °F - 34.5 °F 54% 30.33 in 10.0 mi Calm Calm - N/A   Clear
11:35 AM 53.6 °F - 35.4 °F 50% 30.33 in 10.0 mi WSW 3.5 mph - N/A   Clear
11:55 AM 55.0 °F - 35.1 °F 47% 30.32 in 10.0 mi South 5.8 mph - N/A   Clear
12:15 PM 56.7 °F - 36.1 °F 46% 30.32 in 10.0 mi South 6.9 mph - N/A   Clear
12:35 PM 59.0 °F - 35.8 °F 42% 30.30 in 10.0 mi South 8.1 mph - N/A   Clear
12:55 PM 60.6 °F - 35.2 °F 39% 30.29 in 10.0 mi South 4.6 mph - N/A   Clear
1:15 PM 62.2 °F - 33.6 °F 34% 30.27 in 10.0 mi SSW 8.1 mph - N/A   Clear
1:35 PM 63.1 °F - 32.7 °F 32% 30.26 in 10.0 mi South 4.6 mph - N/A   Clear
1:55 PM 64.2 °F - 32.2 °F 30% 30.25 in 10.0 mi South 9.2 mph - N/A   Clear
2:35 PM 65.3 °F - 32.0 °F 29% 30.23 in 10.0 mi SSW 9.2 mph - N/A   Clear
3:15 PM 66.0 °F - 32.2 °F 28% 30.21 in 10.0 mi SSW 5.8 mph - N/A   Clear
3:35 PM 66.2 °F - 32.0 °F 28% 30.20 in 10.0 mi South 6.9 mph - N/A   Clear
3:55 PM 66.4 °F - 32.0 °F 28% 30.19 in 10.0 mi South 6.9 mph - N/A   Clear
4:15 PM 66.2 °F - 31.8 °F 28% 30.19 in 10.0 mi South 5.8 mph - N/A   Clear
4:35 PM 66.0 °F - 31.8 °F 28% 30.18 in 10.0 mi SSW 5.8 mph - N/A   Clear
4:55 PM 65.7 °F - 32.0 °F 29% 30.18 in 10.0 mi South 4.6 mph - N/A   Clear
5:15 PM 65.5 °F - 31.5 °F 28% 30.18 in 10.0 mi SSW 8.1 mph - N/A   Clear
5:35 PM 64.9 °F - 30.6 °F 28% 30.18 in 10.0 mi South 4.6 mph - N/A   Clear
5:55 PM 63.3 °F - 30.2 °F 29% 30.18 in 10.0 mi South 4.6 mph - N/A   Clear
6:15 PM 62.2 °F - 30.0 °F 30% 30.17 in 10.0 mi South 3.5 mph - N/A   Clear
6:35 PM 60.3 °F - 30.4 °F 32% 30.17 in 10.0 mi SE 3.5 mph - N/A   Clear
6:55 PM 57.9 °F - 31.8 °F 37% 30.17 in 10.0 mi SSE 4.6 mph - N/A   Clear
7:35 PM 53.6 °F - 32.0 °F 44% 30.17 in 10.0 mi Calm Calm - N/A   Clear
7:55 PM 51.8 °F - 33.8 °F 50% 30.16 in 10.0 mi Calm Calm - N/A   Clear
8:35 PM 46.4 °F - 33.8 °F 62% 30.16 in 10.0 mi Calm Calm - 0.01 in   Clear
8:55 PM 44.6 °F - 35.6 °F 71% 30.16 in 10.0 mi Calm Calm - 0.01 in   Clear
9:15 PM 44.6 °F - 35.6 °F 71% 30.16 in 10.0 mi Calm Calm - N/A   Clear
9:35 PM 42.8 °F - 35.6 °F 76% 30.15 in 10.0 mi Calm Calm - N/A   Clear
9:55 PM 42.8 °F - 35.6 °F 76% 30.14 in 10.0 mi Calm Calm - N/A   Clear
10:15 PM 41.0 °F - 35.6 °F 81% 30.14 in 10.0 mi Calm Calm - N/A   Clear
10:35 PM 41.0 °F 39.0 °F 35.6 °F 81% 30.14 in 10.0 mi West 3.5 mph - N/A   Clear
10:55 PM 41.0 °F - 35.6 °F 81% 30.14 in 10.0 mi Calm Calm - N/A   Clear
11:15 PM 37.4 °F - 33.8 °F 87% 30.14 in 10.0 mi Calm Calm - N/A   Clear
11:35 PM 37.4 °F - 33.8 °F 87% 30.13 in 10.0 mi Calm Calm - N/A   Clear
11:55 PM 37.4 °F - 33.8 °F 87% 30.13 in 10.0 mi Calm Calm - N/A   Clear